[[{"header":{"parameterUnit":"m.s-1","parameterCategory":1,"la1":30.2991,"la2":30.254,"lo1":-89.0895,"lo2":-89.0444,"dy":0.0017,"dx":0.0017,"nx":28,"ny":28,"refTime":"2024-05-07T09:00:00:Z","depth":0,"parameterNumber":2,"parameterNumberName":"U-component_of_WINDS"},"data":[0,0,0,0,0,0,0,0,0,0,0,0,0,0,0,0,0,0,0,0,0,0,0,0,0,0,0,0,0,0,0,0,0,0,0,0,0,0,0,0,0,0,0,0,0,0,0,0,0,0,0,0,0,0,0,0,0,0,-0.9086,-0.9086,0,-0.9136,-0.9136,-0.9137,-0.9151,-0.9151,-0.9151,-0.915,-0.9206,-0.9208,-0.9209,0,0,0,0,0,0,0,0,0,0,0,0,0,-0.9007,-0.9009,-0.9085,-0.9086,-0.9087,-0.9135,-0.9136,-0.9137,-0.9151,-0.9151,-0.9151,-0.915,-0.9205,-0.9207,-0.921,0,0,0,0,0,0,0,0,0,0,0,0,0,-0.9048,-0.9009,-0.9085,-0.91,-0.9101,-0.9135,-0.9136,-0.9137,-0.9151,-0.9151,-0.915,-0.915,-0.9205,-0.9207,-0.921,-0.9234,0,0,-0.9218,-0.9219,0,0,0,0,0,0,0,0,-0.9045,-0.9051,-0.9097,-0.9099,-0.9101,-0.9137,-0.9129,-0.917,-0.9151,-0.9132,-0.915,-0.915,-0.9184,-0.9188,-0.9198,-0.9237,-0.9239,-0.9218,-0.922,-0.9221,-0.9222,0,0,0,0,0,0,0,-0.9043,-0.9049,-0.9105,-0.9098,-0.91,-0.9105,-0.911,-0.9137,-0.916,-0.9134,-0.9135,-0.9141,-0.9185,-0.9196,-0.92,-0.924,-0.9218,-0.922,-0.9222,-0.9223,-0.9303,-0.9304,0,0,0,0,0,0,-0.9037,-0.9046,-0.9104,-0.9107,-0.9071,-0.9107,-0.9113,-0.9126,-0.916,-0.9164,-0.9141,-0.9141,-0.9191,-0.9197,-0.9202,-0.9234,-0.9221,-0.9223,-0.9225,-0.9303,-0.9304,-0.9304,0,0,0,0,0,0,-0.9035,-0.9042,-0.9102,-0.9077,-0.9085,-0.9109,-0.9123,-0.9127,-0.9138,-0.9165,-0.9169,-0.9148,-0.9191,-0.9198,-0.9226,-0.9236,-0.9224,-0.9227,-0.9302,-0.9303,-0.9304,-0.9297,0,0,0,0,0,0,-0.9033,-0.9041,-0.9049,-0.9077,-0.9086,-0.9124,-0.9123,-0.9128,-0.9142,-0.9143,-0.9173,-0.9177,-0.9192,-0.9222,-0.9229,-0.9239,-0.9229,-0.9302,-0.9303,-0.9304,-0.9297,-0.9298,-0.9298,0,0,0,0,0,-0.903,-0.9046,-0.905,-0.9057,-0.9097,-0.9124,-0.913,-0.9145,-0.9143,-0.9152,-0.917,-0.9176,-0.9234,-0.9225,-0.9233,-0.9244,-0.9301,-0.9302,-0.9304,-0.9296,-0.9297,-0.9298,0,0,0,0,0,0,-0.902,-0.905,-0.9054,-0.908,-0.9099,-0.9127,-0.9139,-0.9145,-0.9167,-0.9167,-0.9186,-0.9193,-0.922,-0.9235,-0.9225,-0.927,-0.9268,-0.9271,-0.9259,-0.9261,-0.9262,-0.9258,-0.9231,0,0,0,0,0,-0.9021,-0.9039,-0.9065,-0.9085,-0.9094,-0.9115,-0.9128,-0.9137,-0.9159,-0.9168,-0.9187,-0.921,-0.9233,-0.9248,-0.927,-0.9299,-0.9306,-0.9311,-0.9311,-0.9312,-0.9315,-0.9332,-0.9335,-0.9308,-0.9308,-0.9308,0,0,-0.9023,-0.9041,-0.9052,-0.9084,-0.91,-0.912,-0.9122,-0.9143,-0.9159,-0.9172,-0.9199,-0.9214,-0.9241,-0.9269,-0.9283,-0.9282,-0.9323,-0.9314,-0.9314,-0.9316,-0.9334,-0.9336,-0.9338,-0.9309,-0.9309,-0.9309,0,0,-0.9037,-0.9052,-0.9071,-0.9087,-0.9111,-0.9125,-0.913,-0.9156,-0.9167,-0.9194,-0.9205,-0.9225,-0.9264,-0.9282,-0.9297,-0.9318,-0.9326,-0.9326,-0.9331,-0.9348,-0.935,-0.9352,-0.936,-0.9363,-0.9328,-0.9328,-0.9328,0,-0.9037,-0.9066,-0.908,-0.9101,-0.9115,-0.9126,-0.9146,-0.9162,-0.9193,-0.9204,-0.9202,-0.9252,-0.927,-0.9304,-0.9309,-0.9321,-0.9328,-0.9322,-0.9348,-0.935,-0.9352,-0.9361,-0.9364,-0.9328,-0.9328,-0.9328,-0.9328,0,-0.9065,-0.9086,-0.9098,-0.9126,-0.9142,-0.9162,-0.9181,-0.9196,-0.9204,-0.9219,-0.9248,-0.927,-0.9298,-0.9307,-0.9316,-0.9343,-0.9342,-0.9344,-0.9342,-0.9354,-0.9363,-0.9366,-0.9327,-0.9327,-0.9327,-0.9328,0,0,-0.9075,-0.9111,-0.9115,-0.9128,-0.9156,-0.9173,-0.9195,-0.9221,-0.9234,-0.9255,-0.9275,-0.9308,-0.931,-0.9327,-0.9338,-0.9353,-0.937,-0.9354,-0.9355,-0.9357,-0.9402,-0.9401,-0.9404,-0.9375,-0.9376,-0.9376,-0.94,0,-0.9093,-0.913,-0.9144,-0.9175,-0.9195,-0.9206,-0.9226,-0.9246,-0.926,-0.928,-0.9297,-0.932,-0.9321,-0.9331,-0.9346,-0.9365,-0.938,-0.9363,-0.9396,-0.9396,-0.9389,-0.9409,-0.9407,-0.9428,-0.9404,-0.9404,-0.9405,0,-0.9119,-0.914,-0.9172,-0.9198,-0.9207,-0.9224,-0.9249,-0.9268,-0.9292,-0.9301,-0.932,-0.9331,-0.9356,-0.9352,-0.9387,-0.9376,-0.939,-0.9401,-0.9403,-0.9407,-0.9402,-0.9414,-0.9436,-0.9439,-0.941,-0.941,-0.9409,0,-0.9124,-0.916,-0.9184,-0.9195,-0.9226,-0.9238,-0.9252,-0.9275,-0.929,-0.9313,-0.9323,-0.9349,-0.9363,-0.9384,-0.9402,-0.9398,-0.9437,-0.9434,-0.9447,-0.9447,-0.9455,-0.9455,-0.948,-0.9463,-0.9463,-0.9463,-0.9463,0,-0.9143,-0.9163,-0.9187,-0.9202,-0.9225,-0.9241,-0.9265,-0.9279,-0.93,-0.932,-0.9332,-0.935,-0.9372,-0.9395,-0.9409,-0.9437,-0.9444,-0.9453,-0.9457,-0.9453,-0.9451,-0.9463,-0.9462,-0.9464,-0.9464,-0.9464,-0.9463,0,-0.9153,-0.9169,-0.9197,-0.9223,-0.9231,-0.9247,-0.9271,-0.9287,-0.9301,-0.9326,-0.9333,-0.9357,-0.9383,-0.9403,-0.9438,-0.9448,-0.9478,-0.9482,-0.947,-0.9472,-0.9484,-0.9483,-0.9518,-0.9524,-0.9502,-0.9502,-0.9502,0,-0.9165,-0.918,-0.9208,-0.9221,-0.9234,-0.9255,-0.9271,-0.9288,-0.9303,-0.9332,-0.9345,-0.9372,-0.9395,-0.9437,-0.9459,-0.9486,-0.9491,-0.9501,-0.9495,-0.949,-0.9492,-0.9491,-0.9493,-0.9502,-0.9502,-0.9502,-0.9503,0,-0.9184,-0.9191,-0.9211,-0.9235,-0.9252,-0.9272,-0.9292,-0.9303,-0.9324,-0.9341,-0.9368,-0.9385,-0.942,-0.9447,-0.9477,-0.9493,-0.9502,-0.9504,-0.9509,-0.9505,-0.9497,-0.9503,-0.9473,-0.9503,-0.9503,-0.9503,-0.9503,-0.9503,-0.9196,-0.921,-0.9232,-0.9255,-0.9271,-0.929,-0.9306,-0.9323,-0.9345,-0.9373,-0.9383,-0.941,-0.9435,-0.9475,-0.9492,-0.9515,-0.9515,-0.9522,-0.9524,-0.9525,-0.9525,-0.9493,-0.9521,-0.9521,-0.9521,-0.9521,-0.9521,0,-0.9216,-0.9231,-0.9251,-0.9278,-0.9297,-0.9302,-0.9324,-0.934,-0.9364,-0.9385,-0.9407,-0.9438,-0.9465,-0.9488,-0.9517,-0.9531,-0.9536,-0.9538,-0.9537,-0.9541,-0.9523,-0.9517,-0.9533,-0.9533,-0.9533,-0.9533,-0.9533,-0.9533,-0.9229,-0.9254,-0.9264,-0.9298,-0.9313,-0.9339,-0.9352,-0.937,-0.9387,-0.9421,-0.9442,-0.9457,-0.948,-0.951,-0.9536,-0.9542,-0.9552,-0.9554,-0.9561,-0.9544,-0.9542,-0.9541,-0.9535,-0.9555,-0.9555,-0.9578,-0.9578,-0.9578]},{"header":{"parameterUnit":"m.s-1","parameterCategory":1,"la1":30.2991,"la2":30.254,"lo1":-89.0895,"lo2":-89.0444,"dy":0.0017,"dx":0.0017,"nx":28,"ny":28,"refTime":"2024-05-07T09:00:00:Z","depth":0,"parameterNumber":3,"parameterNumberName":"V-component_of_WINDS"},"data":[0,0,0,0,0,0,0,0,0,0,0,0,0,0,0,0,0,0,0,0,0,0,0,0,0,0,0,0,0,0,0,0,0,0,0,0,0,0,0,0,0,0,0,0,0,0,0,0,0,0,0,0,0,0,0,0,0,0,5.8685,5.8684,0,5.861,5.8609,5.8608,5.8487,5.8484,5.8482,5.848,5.8405,5.8405,5.8405,0,0,0,0,0,0,0,0,0,0,0,0,0,5.8726,5.8726,5.8685,5.8684,5.8683,5.861,5.8609,5.8608,5.8487,5.8484,5.8482,5.8479,5.8405,5.8405,5.8405,0,0,0,0,0,0,0,0,0,0,0,0,0,5.8686,5.8726,5.8685,5.8614,5.8607,5.861,5.8609,5.8608,5.8488,5.8484,5.8481,5.8478,5.8405,5.8405,5.8405,5.8473,0,0,5.8406,5.8406,0,0,0,0,0,0,0,0,5.8688,5.8684,5.8626,5.8619,5.8611,5.8554,5.8596,5.8562,5.8488,5.8533,5.848,5.8476,5.8458,5.8453,5.8446,5.8469,5.8466,5.8406,5.8406,5.8406,5.8406,0,0,0,0,0,0,0,5.8691,5.8687,5.8655,5.8625,5.8616,5.8586,5.8577,5.8589,5.8515,5.8529,5.852,5.8512,5.8453,5.8447,5.8444,5.8465,5.8406,5.8406,5.8406,5.8406,5.8537,5.854,0,0,0,0,0,0,5.8704,5.869,5.8658,5.8653,5.8642,5.8588,5.8578,5.8576,5.8514,5.8502,5.8515,5.8507,5.8448,5.8444,5.8441,5.8513,5.8406,5.8406,5.8406,5.8533,5.8537,5.8541,0,0,0,0,0,0,5.8705,5.8702,5.8661,5.8669,5.8661,5.8591,5.859,5.8576,5.8569,5.8504,5.8491,5.8522,5.8445,5.844,5.8465,5.8509,5.8406,5.8406,5.8529,5.8534,5.8539,5.866,0,0,0,0,0,0,5.8707,5.8704,5.8728,5.867,5.8662,5.8686,5.8593,5.8577,5.857,5.8558,5.8507,5.8495,5.8442,5.8465,5.8465,5.8507,5.8406,5.8525,5.8532,5.8538,5.8652,5.8669,5.8684,0,0,0,0,0,5.8709,5.8766,5.873,5.8727,5.8691,5.8689,5.8684,5.8621,5.8574,5.8598,5.8556,5.8497,5.8505,5.8469,5.8467,5.851,5.8522,5.853,5.8537,5.8645,5.8666,5.8683,0,0,0,0,0,0,5.8832,5.8757,5.8716,5.8756,5.873,5.8669,5.8697,5.8645,5.8632,5.8622,5.8545,5.8534,5.8568,5.8542,5.8503,5.8571,5.8504,5.8512,5.8587,5.8606,5.8621,5.8626,5.8406,0,0,0,0,0,5.8863,5.8868,5.8803,5.8845,5.8833,5.8768,5.8765,5.8719,5.8688,5.8677,5.8636,5.861,5.8605,5.8605,5.8598,5.8649,5.8635,5.8677,5.8693,5.8706,5.8713,5.8736,5.8753,5.8566,5.8566,5.8566,0,0,5.8929,5.8889,5.8897,5.8868,5.8842,5.8848,5.8759,5.877,5.8774,5.8678,5.8698,5.8668,5.8633,5.867,5.8685,5.8649,5.8762,5.8716,5.8727,5.8727,5.8746,5.8763,5.8779,5.8571,5.857,5.857,0,0,5.9051,5.9022,5.9052,5.9028,5.8989,5.8945,5.8953,5.8899,5.8875,5.8893,5.8821,5.8825,5.8821,5.8798,5.8786,5.8899,5.8844,5.8899,5.898,5.9004,5.9018,5.9031,5.9069,5.9084,5.8907,5.8907,5.8907,0,5.9137,5.9143,5.9075,5.9089,5.9079,5.8992,5.9022,5.9002,5.8964,5.8958,5.8919,5.891,5.8881,5.8911,5.8938,5.8932,5.8937,5.8904,5.9022,5.9034,5.9044,5.908,5.9095,5.8914,5.8913,5.8913,5.8912,0,5.925,5.9256,5.9285,5.9248,5.9241,5.9264,5.9199,5.92,5.9155,5.9115,5.9135,5.9096,5.9079,5.9083,5.904,5.9107,5.9085,5.9036,5.8966,5.907,5.9102,5.9115,5.8924,5.8921,5.8919,5.8918,0,0,5.9446,5.9371,5.9383,5.9364,5.9315,5.9318,5.9337,5.9319,5.9321,5.9298,5.931,5.9308,5.9261,5.9248,5.9201,5.9222,5.9311,5.9168,5.9166,5.9194,5.938,5.9416,5.9433,5.9275,5.9277,5.9279,5.9382,0,5.9556,5.9582,5.9521,5.9563,5.9566,5.9484,5.95,5.9472,5.9435,5.9433,5.9393,5.9391,5.9331,5.9322,5.9339,5.9297,5.9347,5.9289,5.9285,5.9286,5.9294,5.945,5.9488,5.9587,5.9394,5.9396,5.9398,0,5.9687,5.9669,5.9711,5.9658,5.9657,5.9673,5.965,5.965,5.9616,5.9588,5.9573,5.9518,5.9532,5.9467,5.9484,5.9446,5.9441,5.9421,5.9423,5.9418,5.9346,5.9447,5.9617,5.9631,5.9417,5.9416,5.9414,0,5.9823,5.981,5.9832,5.9819,5.9759,5.9771,5.9747,5.971,5.9703,5.9684,5.9678,5.9662,5.9653,5.9642,5.9583,5.9542,5.9607,5.9538,5.9583,5.9585,5.9599,5.9598,5.9768,5.96,5.96,5.96,5.96,0,5.9951,5.9979,5.9892,5.9906,5.9934,5.9865,5.9895,5.9862,5.983,5.9836,5.9765,5.9772,5.9695,5.9694,5.9649,5.9669,5.9666,5.9643,5.963,5.9648,5.9651,5.9642,5.9633,5.9604,5.9603,5.9602,5.9601,0,6.0107,6.005,6.0068,6.0009,5.9995,6.0019,5.9968,5.9978,5.9938,5.9945,5.9943,5.9879,5.9874,5.9815,5.9797,5.9766,5.9803,5.9779,5.9815,5.9806,5.9853,5.9849,6.0021,6.0039,5.9863,5.9865,5.9866,0,6.0191,6.021,6.0153,6.0151,6.013,6.0129,6.012,6.0053,6.0047,6.001,6.0024,6.0013,5.9999,5.9994,5.9946,5.9931,5.9904,5.9966,5.9902,5.9918,5.9902,5.9901,5.9901,5.9979,5.9981,5.9983,5.9985,0,6.0345,6.0316,6.0306,6.0287,6.028,6.0261,6.0239,6.0242,6.0167,6.0165,6.0157,6.0147,6.0128,6.0117,6.0094,6.0068,6.0014,6.0005,6.0015,6.0032,6.0051,6.0038,5.9849,6.0001,6.0,5.9998,5.9998,5.9997,6.0466,6.0478,6.044,6.0431,6.0407,6.0388,6.0394,6.0353,6.0346,6.0324,6.0285,6.0284,6.0248,6.0211,6.019,6.0187,6.0155,6.017,6.0173,6.0177,6.0185,6.0053,6.0183,6.0183,6.0182,6.0182,6.0181,0,6.0614,6.0585,6.0579,6.0549,6.0542,6.0492,6.0464,6.0462,6.0461,6.0433,6.0421,6.0412,6.0401,6.0352,6.0335,6.0342,6.0317,6.034,6.0337,6.0332,6.0216,6.0208,6.036,6.036,6.036,6.036,6.036,6.036,6.0691,6.0709,6.0675,6.068,6.0651,6.0648,6.0637,6.0618,6.0594,6.0587,6.0577,6.0545,6.0508,6.0488,6.0475,6.0461,6.0457,6.0488,6.0465,6.0358,6.034,6.0324,6.0316,6.0488,6.0488,6.0581,6.0582,6.0582]}]]